Change the Weather History Date:

Wednesday, November 6, 2013

  Actual Average Record
Temperature  
Mean Temperature 58 °F 50 °F  
Max Temperature 69 °F 61 °F 78 °F (1978)
Min Temperature 47 °F 38 °F 16 °F (1991)
Degree Days  
Heating Degree Days 7 15  
Month to date heating degree days 76 88  
Since 1 July heating degree days 385 444  
Cooling Degree Days 0 0  
Month to date cooling degree days 1 0  
Year to date cooling degree days 1272 1176  
Growing Degree Days 8 (Base 50)    
Moisture  
Dew Point 47 °F    
Average Humidity 66    
Maximum Humidity 83    
Minimum Humidity 49    
Precipitation  
Precipitation 0.00 in 0.11 in 2.42 in (1963)
Month to date precipitation 0.14 0.71  
Year to date precipitation 37.11 35.88  
Snow  
Snow 0.00 in 0.00 in 0.00 in (2002)
Month to date snowfall 0.0 0.0  
Since 1 July snowfall 0.0 0.0  
Snow Depth 0.00 in    
Sea Level Pressure  
Sea Level Pressure 30.29 in    
Wind  
Wind Speed 7 mph (South)    
Max Wind Speed 16 mph    
Max Gust Speed 21 mph    
Visibility 10 miles    
Events      
T = Trace of Precipitation, MM = Missing Value Source: NWS Daily Summary

Daily Weather History Graph

Daily Weather History Graph

Search for Another Location

Airport or City:

Trip Planner

Search our weather history database for the weather conditions in past years. The results will help you decide how hot, cold, wet, or windy it might be!

Date:

Astronomy

Nov. 06, 2013 Rise Set
Actual Time 6:42 AM EST 5:03 PM EST
Civil Twilight 6:14 AM EST 5:31 PM EST
Nautical Twilight 5:43 AM EST 6:03 PM EST
Astronomical Twilight 5:11 AM EST 6:34 PM EST
Moon 9:55 AM EST (11/6) 8:06 PM EST (11/6)
Length of Visible Light 11h 16m
Length of Day
10h 20m
Waxing Crescent, 13% of the Moon is Illuminated
Nov 6
Waxing Crescent
Nov 10
First Quarter
Nov 17
Full
Nov 25
Last Quarter
Dec 2
New

Hourly Weather History & Observations

Time (EST) Temp. Dew Point Humidity Pressure Visibility Wind Dir Wind Speed Gust Speed Precip Events Conditions
12:52 AM 50.0 °F 43.0 °F 77% 30.46 in 10.0 mi Calm Calm - N/A   Overcast
1:52 AM 50.0 °F 43.0 °F 77% 30.45 in 10.0 mi SSE 3.5 mph - N/A   Overcast
2:52 AM 50.0 °F 42.1 °F 74% 30.44 in 10.0 mi Calm Calm - N/A   Overcast
3:52 AM 48.0 °F 43.0 °F 83% 30.43 in 10.0 mi Calm Calm - N/A   Overcast
4:52 AM 48.0 °F 43.0 °F 83% 30.42 in 10.0 mi Calm Calm - N/A   Overcast
5:52 AM 50.0 °F 43.0 °F 77% 30.40 in 10.0 mi South 4.6 mph - N/A   Overcast
6:52 AM 50.0 °F 43.0 °F 77% 30.39 in 10.0 mi South 4.6 mph - N/A   Mostly Cloudy
7:52 AM 52.0 °F 44.1 °F 74% 30.39 in 10.0 mi South 3.5 mph - N/A   Mostly Cloudy
8:52 AM 54.0 °F 45.0 °F 72% 30.38 in 10.0 mi South 6.9 mph - N/A   Mostly Cloudy
9:52 AM 57.0 °F 46.9 °F 69% 30.36 in 10.0 mi South 9.2 mph - N/A   Mostly Cloudy
10:52 AM 60.1 °F 48.0 °F 64% 30.35 in 10.0 mi South 8.1 mph - N/A   Scattered Clouds
11:52 AM 62.1 °F 48.0 °F 60% 30.31 in 10.0 mi South 11.5 mph 16.1 mph N/A   Scattered Clouds
12:52 PM 64.9 °F 48.0 °F 54% 30.27 in 10.0 mi South 13.8 mph - N/A   Mostly Cloudy
1:52 PM 66.0 °F 48.0 °F 52% 30.24 in 10.0 mi South 13.8 mph - N/A   Mostly Cloudy
2:52 PM 68.0 °F 48.0 °F 49% 30.22 in 10.0 mi SSW 11.5 mph - N/A   Mostly Cloudy
3:52 PM 66.0 °F 48.0 °F 52% 30.20 in 10.0 mi South 11.5 mph - N/A   Scattered Clouds
4:52 PM 64.0 °F 48.9 °F 58% 30.17 in 10.0 mi SSE 8.1 mph - N/A   Mostly Cloudy
5:52 PM 62.1 °F 50.0 °F 65% 30.17 in 10.0 mi SSE 4.6 mph - N/A   Mostly Cloudy
6:52 PM 62.1 °F 48.9 °F 62% 30.17 in 10.0 mi South 5.8 mph - N/A   Scattered Clouds
7:52 PM 59.0 °F 50.0 °F 72% 30.14 in 10.0 mi SSE 8.1 mph - N/A   Scattered Clouds
8:52 PM 59.0 °F 50.0 °F 72% 30.13 in 10.0 mi South 9.2 mph - N/A   Partly Cloudy
9:52 PM 57.0 °F 50.0 °F 77% 30.12 in 10.0 mi South 11.5 mph - N/A   Partly Cloudy
10:52 PM 55.0 °F 50.0 °F 83% 30.09 in 10.0 mi South 8.1 mph - N/A   Clear
11:52 PM 55.0 °F 50.0 °F 83% 30.06 in 10.0 mi South 10.4 mph - N/A   Clear